BA4930 EHRD-EGKK

Flight info

Callsign BA4930
Flight time N/A
Altitude 24000
Route EHRD/06 ABNED Z344 AMRIV Q63 ARREK Y4 TEBRA
Aircraft A320/M-SDE3FGHIRWY/LB1

Departure

Time 2026-05-01 15:22
Airport Rotterdam The Hague Airport (EHRD)

Arrival

Time N/A
Airport London Gatwick Airport (EGKK)
Time Latitude Longitude Altitude Speed Heading
2026-05-01 14:50 51.94997 4.43444 1 ft 0 kts 326°
2026-05-01 15:14 51.95010 4.43430 2 ft 2 kts 327°
2026-05-01 15:14 51.95028 4.43425 1 ft 3 kts 14°
2026-05-01 15:14 51.95074 4.43529 1 ft 8 kts 57°
2026-05-01 15:15 51.95152 4.43606 1 ft 8 kts 333°
2026-05-01 15:15 51.95271 4.43509 1 ft 11 kts
2026-05-01 15:16 51.95380 4.43744 1 ft 15 kts 58°
2026-05-01 15:16 51.95511 4.44072 1 ft 19 kts 56°
2026-05-01 15:17 51.95662 4.44448 1 ft 21 kts 57°
2026-05-01 15:18 51.95914 4.45078 1 ft 24 kts 57°
2026-05-01 15:18 51.96005 4.45306 1 ft 23 kts 57°
2026-05-01 15:19 51.96144 4.45635 1 ft 0 kts 37°
2026-05-01 15:20 51.96147 4.45638 1 ft 3 kts 36°
2026-05-01 15:20 51.96182 4.45646 1 ft 8 kts 354°
2026-05-01 15:20 51.96234 4.45569 1 ft 14 kts 306°
2026-05-01 15:21 51.96234 4.45384 1 ft 21 kts 235°
2026-05-01 15:21 51.96112 4.45090 2 ft 59 kts 237°
2026-05-01 15:21 51.95764 4.44216 0 ft 121 kts 238°
2026-05-01 15:21 51.95230 4.42867 176 ft 148 kts 232°
2026-05-01 15:22 51.94538 4.39884 1401 ft 157 kts 275°
2026-05-01 15:22 51.94922 4.38103 1791 ft 181 kts 290°
2026-05-01 15:22 51.95435 4.36106 2189 ft 203 kts 290°
2026-05-01 15:23 51.95966 4.33853 2493 ft 224 kts 279°
2026-05-01 15:23 51.95983 4.31231 2927 ft 244 kts 260°
2026-05-01 15:23 51.95746 4.28396 3564 ft 261 kts 259°
2026-05-01 15:23 51.95493 4.25452 4531 ft 264 kts 259°
2026-05-01 15:24 51.95238 4.22484 5532 ft 267 kts 259°
2026-05-01 15:24 51.94983 4.19532 6479 ft 270 kts 260°
2026-05-01 15:24 51.94719 4.16493 7366 ft 273 kts 259°
2026-05-01 15:24 51.94453 4.13421 8253 ft 278 kts 259°
2026-05-01 15:25 51.94185 4.10298 9137 ft 282 kts 258°
2026-05-01 15:25 51.93906 4.07113 10012 ft 286 kts 258°
2026-05-01 15:25 51.93603 4.03879 10582 ft 300 kts 257°
2026-05-01 15:25 51.93262 4.00414 10847 ft 323 kts 257°
2026-05-01 15:26 51.92902 3.96784 11326 ft 334 kts 257°
2026-05-01 15:26 51.92533 3.93035 12014 ft 339 kts 257°
2026-05-01 15:26 51.92163 3.89228 12730 ft 343 kts 257°
2026-05-01 15:26 51.91790 3.85380 13439 ft 347 kts 257°